Regional Weather Roundup
Issued by NWS

Home | Current Version | Previous Version | Graphics & Text | Print | Product List | Glossary On
Versions: 1 2 3 4 5 6 7 8 9 10 11 12 13 14 15 16 17 18 19 20 21 22 23 24 25 26 27 28 29 30 31 32 33 34 35 36 37 38 39 40 41 42 43 44 45 46 47 48 49 50
000
ASUS44 KMEG 030110
RWRTN
TENNESSEE HOURLY STATE WEATHER ROUNDUP
NATIONAL WEATHER SERVICE MEMPHIS TN
700 PM CST FRI DEC 02 2016

TNZ002-004-019-021-049-052-054-088>092-030200-
WEST TENNESSEE

CITY           SKY/WX    TMP DP  RH WIND       PRES   REMARKS
MEMPHIS INTL   MOCLDY    51  35  54 CALM      30.28R
NWS MEMPHIS      N/A     47 N/A N/A MISG        N/A
JACKSON        CLEAR     45  35  68 CALM      30.28S
DYERSBURG      PTCLDY   N/A N/A N/A E5        30.28S
UNION CITY       N/A     45  32  61 CALM      30.29R
PARIS          CLEAR     37  30  75 CALM      30.29S
HUNTINGDON     MOCLDY    41  32  70 CALM      30.28S
LEXINGTON      CLEAR     45  30  57 CALM      30.28R
$$

TNZ008-025-027-028-033-062-065-066-030200-
NORTH MIDDLE TENNESSEE

CITY           SKY/WX    TMP DP  RH WIND       PRES   REMARKS
NASHVILLE      PTCLDY    49  26  41 N6        30.29S
PORTLAND       MOCLDY    43  30  61 CALM      30.29R
CLARKSVILLE    PTCLDY    41  29  62 CALM      30.30R
SMYRNA         PTCLDY    42  32  67 CALM      30.30R
CROSSVILLE     CLEAR     43  26  51 W6        30.26S
$$

TNZ061-075-076-078-094-096-097-030200-
SOUTH MIDDLE TENNESSEE

CITY           SKY/WX    TMP DP  RH WIND       PRES   REMARKS
FAYETTEVILLE   CLEAR     48  34  57 CALM      30.28R
TULLAHOMA      CLEAR     41  28  60 CALM      30.27S
WINCHESTER     CLEAR     41  32  70 CALM      30.26F
MCMINNVILLE    CLEAR     41  28  60 CALM      30.26F
COLUMBIA       CLEAR     45  37  76 SW3       30.27R
SHELBYVILLE    CLEAR     43  36  75 CALM      30.29S
$$

TNZ017-018-042-046-047-030200-
NORTHEAST TENNESSEE

CITY           SKY/WX    TMP DP  RH WIND       PRES   REMARKS
TRI CITIES     CLEAR     38  28  67 SW7       30.22R WCI  33
ELIZABETHTON   CLEAR     41  28  60 CALM      30.21R
$$

TNZ012-013-036-069-073-074-030200-
CENTRAL EAST TENNESSEE

CITY           SKY/WX    TMP DP  RH WIND       PRES   REMARKS
KNOXVILLE      CLEAR     44  30  57 SW5       30.25R
OAK RIDGE      CLEAR     44  32  62 CALM      30.27R
DOWNTOWN KNOXV CLEAR     41  37  87 CALM      30.26R
GATLINBURG     CLEAR     39  30  70 CALM      30.25R
MORRISTOWN     PTCLDY    46  30  53 W7        30.24R
JACKSBORO      CLEAR     43  28  56 CALM      30.28R
$$

TNZ083-085-099-030200-
SOUTHEAST TENNESSEE

CITY           SKY/WX    TMP DP  RH WIND       PRES   REMARKS
CHATTANOOGA    PTCLDY    46  33  60 CALM      30.27R
$$

SKY/WX REPORTED AS FAIR MEANS FEW OR NO CLOUDS BELOW
12 THOUSAND FEET.





USA.gov is the U.S. government's official web portal to all federal, state and local government web resources and services.